| time (UTC) | temp F | wind direction | speed MPH | gust MPH | rain 1hr in | rain 24hr in | rain mn in | humidity % | barometer mb |
| 20260502204357 | 78 | 97 | 1.0 | 7.0 | 0.00 | 0.42 | 0.01 | 44 | 1018.4 |
| 20260502203343 | 78 | 109 | 0.0 | 7.0 | 0.00 | 0.43 | 0.01 | 42 | 1018.6 |
| 20260502202350 | 78 | 342 | 1.0 | 9.0 | 0.00 | 0.45 | 0.01 | 44 | 1018.5 |
| 20260502201354 | 78 | 36 | 1.0 | 9.0 | 0.00 | 0.47 | 0.01 | 42 | 1018.7 |
| 20260502200344 | 78 | 329 | 0.0 | 6.0 | 0.00 | 0.47 | 0.01 | 44 | 1018.7 |
| 20260502195401 | 77 | 257 | 1.0 | 6.0 | 0.00 | 0.48 | 0.01 | 43 | 1018.8 |
| 20260502194348 | 77 | 324 | 1.0 | 5.0 | 0.00 | 0.49 | 0.01 | 45 | 1018.9 |
| 20260502193351 | 78 | 16 | 0.0 | 4.0 | 0.00 | 0.50 | 0.01 | 44 | 1019.1 |
| 20260502192341 | 77 | 331 | 1.0 | 10.0 | 0.00 | 0.52 | 0.01 | 46 | 1019.2 |
| 20260502191318 | 76 | 139 | 1.0 | 10.0 | 0.00 | 0.52 | 0.01 | 45 | 1019.3 |
| 20260502190308 | 76 | 323 | 2.0 | 10.0 | 0.00 | 0.53 | 0.01 | 46 | 1019.4 |
| 20260502185258 | 76 | 304 | 1.0 | 10.0 | 0.00 | 0.53 | 0.01 | 48 | 1019.5 |
| 20260502184235 | 75 | 331 | 1.0 | 8.0 | 0.00 | 0.53 | 0.01 | 48 | 1019.6 |
| 20260502183227 | 75 | 267 | 1.0 | 8.0 | 0.00 | 0.53 | 0.01 | 46 | 1019.8 |
| 20260502181121 | 75 | 327 | 0.0 | 8.0 | 0.00 | 0.53 | 0.01 | 48 | 1020.1 |
| 20260502180137 | 74 | 333 | 1.0 | 8.0 | 0.00 | 0.54 | 0.01 | 50 | 1020.2 |
| 20260502163951 | 71 | 302 | 1.0 | 7.0 | 0.00 | 0.57 | 0.01 | 58 | 1020.7 |
| 20260502162953 | 70 | 285 | 1.0 | 7.0 | 0.00 | 0.57 | 0.01 | 62 | 1020.7 |
| 20260502161932 | 69 | 320 | 1.0 | 4.0 | 0.00 | 0.60 | 0.01 | 62 | 1020.7 |
| 20260502123802 | 54 | 344 | 0.0 | 3.0 | 0.00 | 1.82 | 0.01 | 2 | 1018.8 |
| 20260502122739 | 53 | 248 | 0.0 | 2.0 | 0.00 | 1.92 | 0.01 | 2 | 1018.6 |
| 20260502121741 | 53 | 271 | 0.0 | 2.0 | 0.00 | 1.95 | 0.01 | 2 | 1018.5 |
| 20260502120758 | 53 | 347 | 0.0 | 0.0 | 0.00 | 2.00 | 0.00 | 2 | 1018.4 |
| 20260502115740 | 53 | 347 | 0.0 | 0.0 | 0.00 | 2.11 | 0.00 | 3 | 1018.3 |
| 20260502114739 | 53 | 347 | 0.0 | 0.0 | 0.00 | 2.14 | 0.00 | 3 | 1018.3 |
| 20260502113713 | 53 | 347 | 0.0 | 0.0 | 0.00 | 2.16 | 0.00 | 3 | 1018.2 |
| 20260502112644 | 53 | 347 | 0.0 | 0.0 | 0.00 | 2.18 | 0.00 | 3 | 1018.1 |
| 20260502111615 | 53 | 347 | 0.0 | 0.0 | 0.00 | 2.22 | 0.00 | 3 | 1017.9 |
| 20260502110617 | 53 | 347 | 0.0 | 0.0 | 0.00 | 2.32 | 0.00 | 3 | 1017.8 |
| 20260502105551 | 53 | 347 | 0.0 | 0.0 | 0.00 | 2.36 | 0.00 | 3 | 1017.7 |
| 20260502104605 | 53 | 347 | 0.0 | 0.0 | 0.00 | 2.38 | 0.00 | 3 | 1017.6 |
| 20260502103543 | 53 | 347 | 0.0 | 0.0 | 0.00 | 2.40 | 0.00 | 3 | 1017.5 |
| 20260502102530 | 53 | 348 | 0.0 | 0.0 | 0.00 | 2.40 | 0.00 | 3 | 1017.5 |
| 20260502101541 | 53 | 333 | 0.0 | 2.0 | 0.00 | 2.42 | 0.00 | 3 | 1017.3 |
| 20260502100517 | 53 | 348 | 0.0 | 0.0 | 0.00 | 2.43 | 0.00 | 3 | 1017.2 |
| 20260502091432 | 54 | 350 | 0.0 | 0.0 | 0.00 | 2.62 | 0.00 | 3 | 1016.3 |
| 20260502090435 | 54 | 350 | 0.0 | 0.0 | 0.00 | 2.62 | 0.00 | 3 | 1016.1 |
| 20260502071106 | 55 | 298 | 0.0 | 1.0 | 0.00 | 2.82 | 0.00 | 1 | 1016.1 |
| 20260502070117 | 55 | 315 | 0.0 | 5.0 | 0.00 | 2.82 | 0.00 | 1 | 1016.2 |
| 20260502065100 | 55 | 347 | 0.0 | 0.0 | 0.00 | 2.82 | 0.00 | 1 | 1015.9 |
| 20260502064113 | 55 | 298 | 0.0 | 4.0 | 0.00 | 2.82 | 0.00 | 1 | 1016.0 |
| 20260502061955 | 55 | 313 | 0.0 | 8.0 | 0.00 | 2.83 | 0.00 | 1 | 1015.8 |
| 20260502060957 | 55 | 343 | 0.0 | 8.0 | 0.00 | 2.84 | 0.00 | 1 | 1015.7 |
| 20260502054916 | 55 | 94 | 0.0 | 4.0 | 0.00 | 2.87 | 0.00 | 1 | 1015.7 |
| 20260502053907 | 55 | 346 | 0.0 | 7.0 | 0.00 | 2.87 | 0.00 | 1 | 1015.8 |
| 20260502051804 | 56 | 83 | 0.0 | 4.0 | 0.00 | 2.88 | 0.00 | 1 | 1015.8 |
| 20260502050742 | 56 | 0 | 0.0 | 8.0 | 0.00 | 2.88 | 0.00 | 1 | 1015.8 |
| 20260502045806 | 56 | 320 | 1.0 | 8.0 | 0.00 | 2.88 | 2.88 | 1 | 1015.7 |
| 20260502044830 | 56 | 327 | 0.0 | 5.0 | 0.00 | 2.88 | 2.88 | 1 | 1015.7 |
| 20260502043808 | 56 | 260 | 0.0 | 5.0 | 0.00 | 2.88 | 2.88 | 1 | 1015.7 |
| 20260502042806 | 56 | 314 | 0.0 | 1.0 | 0.00 | 2.90 | 2.88 | 1 | 1015.6 |
| 20260502041756 | 56 | 346 | 1.0 | 9.0 | 0.00 | 2.91 | 2.88 | 1 | 1015.6 |
| 20260502040736 | 56 | 334 | 0.0 | 7.0 | 0.00 | 2.91 | 2.88 | 1 | 1015.6 |
| 20260502035729 | 56 | 304 | 1.0 | 7.0 | 0.00 | 2.91 | 2.88 | 1 | 1015.7 |
| 20260502034717 | 56 | 329 | 0.0 | 4.0 | 0.00 | 2.91 | 2.88 | 1 | 1015.7 |
| 20260502032558 | 56 | 218 | 0.0 | 2.0 | 0.00 | 2.91 | 2.88 | 1 | 1015.5 |
| 20260502030430 | 56 | 79 | 0.0 | 4.0 | 0.00 | 2.91 | 2.88 | 1 | 1015.1 |
| 20260502025426 | 56 | 355 | 1.0 | 8.0 | 0.00 | 2.91 | 2.88 | 1 | 1014.8 |
| 20260502015805 | 57 | 334 | 0.0 | 7.0 | 0.00 | 2.91 | 2.88 | 1 | 1014.1 |
| 20260502014817 | 57 | 322 | 0.0 | 7.0 | 0.00 | 2.91 | 2.88 | 1 | 1013.8 |
| 20260502013810 | 57 | 55 | 0.0 | 6.0 | 0.00 | 2.91 | 2.88 | 1 | 1013.4 |
| 20260502011648 | 58 | 264 | 0.0 | 7.0 | 0.00 | 2.91 | 2.88 | 1 | 1013.9 |
| 20260502010613 | 58 | 123 | 0.0 | 7.0 | 0.04 | 2.91 | 2.88 | 1 | 1013.7 |
| 20260502005614 | 58 | 77 | 1.0 | 7.0 | 0.09 | 2.91 | 2.88 | 1 | 1012.4 |
| 20260502003442 | 59 | 339 | 0.0 | 5.0 | 0.06 | 2.88 | 2.86 | 1 | 1012.7 |
| 20260502002458 | 60 | 288 | 0.0 | 5.0 | 0.06 | 2.87 | 2.85 | 1 | 1013.0 |
| 20260502001520 | 60 | 219 | 0.0 | 0.0 | 0.06 | 2.87 | 2.84 | 1 | 1012.8 |
| 20260502000454 | 60 | 273 | 0.0 | 4.0 | 0.08 | 2.86 | 2.83 | 1 | 1012.5 |
| 20260501234330 | 60 | 323 | 0.0 | 1.0 | 0.08 | 2.81 | 2.79 | 1 | 1012.4 |
| 20260501233307 | 60 | 320 | 0.0 | 1.0 | 0.13 | 2.80 | 2.78 | 1 | 1012.1 |
| 20260501232305 | 60 | 319 | 0.0 | 2.0 | 0.06 | 2.77 | 2.75 | 1 | 1011.1 |
| 20260501231259 | 60 | 312 | 0.0 | 4.0 | 0.12 | 2.77 | 2.74 | 1 | 1011.1 |
| 20260501225038 | 60 | 311 | 2.0 | 8.0 | 0.00 | 2.66 | 2.63 | 1 | 1010.5 |
| 20260501224055 | 60 | 327 | 1.0 | 8.0 | 0.00 | 2.66 | 2.63 | 1 | 1009.8 |
| 20260501222010 | 61 | 350 | 1.0 | 7.0 | 0.00 | 2.66 | 2.63 | 1 | 1009.8 |
| 20260501221033 | 61 | 317 | 0.0 | 5.0 | 0.06 | 2.66 | 2.63 | 1 | 1010.5 |
| 20260501214850 | 61 | 281 | 0.0 | 7.0 | 0.12 | 2.63 | 2.60 | 1 | 1011.4 |
| 20260501213855 | 61 | 288 | 0.0 | 3.0 | 0.31 | 2.60 | 2.58 | 1 | 1011.3 |
| 20260501212920 | 61 | 349 | 0.0 | 3.0 | 0.21 | 2.56 | 2.53 | 1 | 1011.1 |
| 20260501211927 | 61 | 318 | 0.0 | 9.0 | 0.09 | 2.54 | 2.52 | 1 | 1011.3 |
| 20260501210937 | 61 | 5 | 1.0 | 9.0 | 0.06 | 2.53 | 2.50 | 1 | 1010.3 |
| 20260501205951 | 61 | 342 | 0.0 | 7.0 | 0.05 | 2.51 | 2.48 | 1 | 1009.2 |